Location: Brno
(49.2000°N, 16.6330°E)
Time: 19:36:04
(UTC+02:00)

Cosmos 332 Rocket - Visible Passes

Search period start: 02 June 2015 00:00
Search period end: 12 June 2015 00:00
Orbit: 683 x 706 km, 74.0° (Epoch: 01 June)

Date Brightness Start Highest point End Pass type
(mag) Time Alt. Az. Time Alt. Az. Time Alt. Az.
02 Jun 6.0 01:25:06 10° WNW 01:27:03 12° W 01:28:11 11° WSW visible
02 Jun 4.7 22:43:33 10° N 22:48:05 39° ENE 22:51:27 17° ESE visible
03 Jun 4.9 00:24:14 10° NW 00:28:30 31° WSW 00:30:10 24° SW visible
03 Jun 5.8 21:45:11 10° N 21:48:31 18° NE 21:51:56 10° E visible
03 Jun 3.8 23:24:49 10° NNW 23:29:41 79° WSW 23:32:10 29° SSE visible
04 Jun 6.1 01:08:13 10° W 01:09:24 11° W 01:10:18 10° WSW visible
04 Jun 4.5 22:25:55 10° NNW 22:30:32 42° ENE 22:34:11 15° SE visible
05 Jun 5.1 00:06:45 10° NW 00:10:52 28° WSW 00:12:54 20° SW visible
05 Jun 3.9 23:07:15 10° NNW 23:12:05 71° WSW 23:14:57 24° S visible
06 Jun 4.4 22:08:17 10° NNW 22:12:58 47° ENE 22:17:02 13° SE visible
06 Jun 5.3 23:49:16 10° NW 23:53:14 25° W 23:55:45 16° SW visible
07 Jun 4.0 22:49:40 10° NNW 22:54:28 64° WSW 22:57:51 19° S visible
08 Jun 4.2 21:50:40 10° NNW 21:55:24 51° ENE 21:59:59 11° SE visible
08 Jun 5.5 23:31:48 10° NW 23:35:34 23° W 23:38:42 12° SW visible
09 Jun 4.2 22:32:06 10° NNW 22:36:51 57° WSW 22:40:52 14° S visible
10 Jun 5.7 23:14:21 10° NW 23:17:56 20° W 23:21:22 10° SW visible
11 Jun 4.4 22:14:32 10° NNW 22:19:14 51° WSW 22:23:52 10° S visible
